[[{"header":{"parameterUnit":"m.s-1","parameterCategory":2,"la1":30.2991,"la2":30.254,"lo1":-89.0895,"lo2":-89.0444,"dy":0.0017,"dx":0.0017,"nx":28,"ny":28,"refTime":"2024-03-16T09:00:00:Z","depth":"0","parameterNumber":2,"parameterNumberName":"U-component_of_CURRENTS"},"data":[0,0,0,0,0,0,0,0,0,0,0,0,0,0,0,0,0,0,0,0,0,0,0,0,0,0,0,0,0,0,0,0,0,0,0,0,0,0,0,0,0,0,0,0,0,0,0,0,0,0,0,0,0,0,0,0,0,0,0.2761,0.2762,0,0.2825,0.2826,0.2826,0.2837,0.2837,0.2836,0.2836,0.2837,0.2838,0.2838,0,0,0,0,0,0,0,0,0,0,0,0,0,0.2666,0.2667,0.2761,0.2762,0.2763,0.2825,0.2826,0.2827,0.2837,0.2837,0.2836,0.2836,0.2837,0.2837,0.2838,0,0,0,0,0,0,0,0,0,0,0,0,0,0.2715,0.2668,0.2761,0.2777,0.2779,0.2825,0.2826,0.2827,0.2837,0.2837,0.2836,0.2835,0.2837,0.2837,0.2838,0.2853,0,0,0.284,0.284,0,0,0,0,0,0,0,0,0.2712,0.2718,0.2774,0.2776,0.2779,0.2824,0.2793,0.2833,0.2837,0.2813,0.2836,0.2835,0.2829,0.283,0.2841,0.2853,0.2853,0.284,0.284,0.284,0.2841,0,0,0,0,0,0,0,0.2708,0.2715,0.2784,0.2775,0.2778,0.2788,0.2794,0.2801,0.2821,0.2815,0.2817,0.2827,0.2829,0.2841,0.2841,0.2853,0.284,0.284,0.2841,0.2841,0.2915,0.2917,0,0,0,0,0,0,0.2704,0.2712,0.2782,0.2787,0.2745,0.279,0.2796,0.2809,0.2822,0.2825,0.2827,0.2827,0.284,0.2841,0.2841,0.2887,0.284,0.2841,0.2841,0.2914,0.2916,0.2917,0,0,0,0,0,0,0.2702,0.271,0.278,0.2752,0.2762,0.2792,0.2806,0.281,0.2825,0.2832,0.2833,0.2838,0.284,0.2841,0.2862,0.2885,0.2841,0.2842,0.2912,0.2914,0.2917,0.296,0,0,0,0,0,0,0.2699,0.2709,0.2712,0.2752,0.2763,0.2811,0.2807,0.2812,0.2833,0.2833,0.2841,0.2841,0.2839,0.2862,0.2863,0.2885,0.2842,0.291,0.2913,0.2916,0.2956,0.2963,0.2969,0,0,0,0,0,0.2695,0.2704,0.2711,0.272,0.2768,0.2812,0.2819,0.2837,0.2834,0.2846,0.2857,0.2841,0.2882,0.2863,0.2864,0.2888,0.2908,0.2912,0.2916,0.2953,0.2962,0.2969,0,0,0,0,0,0,0.2657,0.2707,0.2716,0.2737,0.2773,0.2814,0.2828,0.284,0.286,0.2859,0.2859,0.286,0.2892,0.2886,0.2865,0.2921,0.2894,0.2898,0.2922,0.293,0.2937,0.295,0.2843,0,0,0,0,0,0.2652,0.2678,0.2722,0.274,0.2759,0.2794,0.2812,0.2829,0.2855,0.2863,0.2871,0.2885,0.2909,0.2914,0.2932,0.2955,0.2983,0.2974,0.298,0.2986,0.3,0.3053,0.3066,0.2929,0.2929,0.2929,0,0,0.2641,0.2675,0.2686,0.2735,0.2764,0.2799,0.2803,0.2838,0.287,0.2859,0.2896,0.2908,0.2923,0.2958,0.2971,0.2953,0.3046,0.299,0.2995,0.3006,0.3058,0.3071,0.3083,0.2932,0.2931,0.2931,0,0,0.2642,0.2666,0.2689,0.2724,0.2775,0.2803,0.2814,0.286,0.2882,0.292,0.2929,0.2958,0.2981,0.3006,0.3019,0.3071,0.3083,0.3074,0.3112,0.3163,0.3175,0.3185,0.3266,0.3283,0.3072,0.3072,0.3072,0,0.2625,0.2665,0.2701,0.2737,0.2767,0.2806,0.2837,0.2874,0.292,0.294,0.2936,0.3001,0.3009,0.3064,0.3091,0.3086,0.3127,0.3077,0.3172,0.3183,0.3193,0.3272,0.3291,0.3074,0.3074,0.3074,0.3073,0,0.2651,0.2681,0.2702,0.2763,0.2796,0.2834,0.2888,0.2922,0.2949,0.298,0.3038,0.3066,0.3098,0.3114,0.3121,0.3198,0.3211,0.3177,0.3149,0.3209,0.329,0.3308,0.3078,0.3077,0.3076,0.3076,0,0,0.2625,0.2703,0.2711,0.2743,0.2814,0.2848,0.2904,0.2965,0.3017,0.3049,0.3115,0.3158,0.3166,0.3185,0.3199,0.3254,0.3371,0.3252,0.3254,0.333,0.3519,0.3511,0.3531,0.3351,0.3354,0.3356,0.3557,0,0.2637,0.2697,0.2737,0.2797,0.2834,0.2887,0.2943,0.3,0.3058,0.3133,0.3165,0.3236,0.3195,0.3236,0.3274,0.3357,0.3417,0.3322,0.3453,0.3458,0.344,0.355,0.3438,0.3605,0.3575,0.3578,0.358,0,0.2652,0.2696,0.2748,0.2828,0.285,0.2893,0.2993,0.3051,0.3153,0.3201,0.325,0.3291,0.3379,0.3344,0.3478,0.342,0.3474,0.353,0.3538,0.3526,0.3483,0.3536,0.3639,0.3559,0.3609,0.3606,0.3604,0,0.2625,0.2704,0.2746,0.2774,0.2869,0.2906,0.2962,0.3063,0.3125,0.326,0.3326,0.3401,0.3476,0.3536,0.3623,0.3568,0.3795,0.3719,0.3764,0.3765,0.3694,0.3684,0.3728,0.3821,0.3821,0.382,0.382,0,0.2629,0.2665,0.2739,0.2768,0.2828,0.2902,0.2985,0.306,0.3182,0.3274,0.3354,0.3456,0.3531,0.365,0.3692,0.3806,0.3837,0.3814,0.3824,0.3709,0.3698,0.3641,0.3592,0.3828,0.3826,0.3825,0.3823,0,0.2602,0.2646,0.2699,0.279,0.2815,0.2864,0.2973,0.3059,0.3173,0.3307,0.3358,0.3528,0.3699,0.3784,0.3942,0.3911,0.3926,0.4044,0.3925,0.3916,0.3827,0.3785,0.3718,0.3609,0.412,0.4121,0.4122,0,0.2603,0.2624,0.2698,0.2748,0.2794,0.2867,0.2937,0.3036,0.313,0.335,0.3429,0.364,0.3765,0.4001,0.4054,0.4159,0.4008,0.4086,0.3936,0.385,0.3811,0.3628,0.3525,0.3881,0.3879,0.3879,0.3878,0,0.2637,0.2653,0.2724,0.2778,0.2846,0.289,0.2993,0.3042,0.3193,0.3305,0.3505,0.3628,0.3867,0.3942,0.4081,0.4111,0.3894,0.4068,0.4002,0.3664,0.3446,0.3334,0.3745,0.387,0.387,0.3871,0.3871,0.3872,0.2702,0.2728,0.2813,0.2851,0.2915,0.2945,0.295,0.307,0.3167,0.3315,0.3489,0.3628,0.3789,0.3976,0.3981,0.3931,0.3872,0.3822,0.38,0.3638,0.345,0.3866,0.3971,0.3972,0.3973,0.3975,0.3975,0,0.279,0.2819,0.2888,0.2924,0.2956,0.2962,0.3019,0.3009,0.308,0.3253,0.3383,0.3552,0.3636,0.3719,0.3775,0.3683,0.3464,0.3597,0.3306,0.3231,0.3647,0.3553,0.3543,0.3543,0.3543,0.3543,0.3543,0.3543,0.2869,0.2934,0.2917,0.2957,0.2965,0.2927,0.2919,0.2913,0.2984,0.3065,0.3143,0.3264,0.3454,0.3624,0.3569,0.3481,0.3212,0.3104,0.3067,0.3372,0.3389,0.3405,0.3304,0.3243,0.3242,0.2503,0.2498,0.2494]},{"header":{"parameterUnit":"m.s-1","parameterCategory":2,"la1":30.2991,"la2":30.254,"lo1":-89.0895,"lo2":-89.0444,"dy":0.0017,"dx":0.0017,"nx":28,"ny":28,"refTime":"2024-03-16T09:00:00:Z","depth":"0","parameterNumber":3,"parameterNumberName":"V-component_of_CURRENTS"},"data":[0,0,0,0,0,0,0,0,0,0,0,0,0,0,0,0,0,0,0,0,0,0,0,0,0,0,0,0,0,0,0,0,0,0,0,0,0,0,0,0,0,0,0,0,0,0,0,0,0,0,0,0,0,0,0,0,0,0,-0.0155,-0.0156,0,-0.0214,-0.0214,-0.0215,-0.0262,-0.0262,-0.0263,-0.0263,-0.0354,-0.0355,-0.0358,0,0,0,0,0,0,0,0,0,0,0,0,0,-0.0105,-0.0105,-0.0155,-0.0156,-0.0157,-0.0214,-0.0214,-0.0215,-0.0262,-0.0262,-0.0263,-0.0263,-0.0353,-0.0355,-0.0358,0,0,0,0,0,0,0,0,0,0,0,0,0,-0.0142,-0.0105,-0.0155,-0.0186,-0.0189,-0.0213,-0.0214,-0.0216,-0.0262,-0.0262,-0.0263,-0.0263,-0.0352,-0.0355,-0.0358,-0.0365,0,0,-0.0367,-0.0369,0,0,0,0,0,0,0,0,-0.014,-0.0144,-0.0181,-0.0184,-0.0188,-0.023,-0.023,-0.0267,-0.0261,-0.0235,-0.0263,-0.0264,-0.0314,-0.0321,-0.0331,-0.0369,-0.0373,-0.0368,-0.037,-0.0371,-0.0372,0,0,0,0,0,0,0,-0.0137,-0.0142,-0.0179,-0.0181,-0.0186,-0.0204,-0.021,-0.0237,-0.0272,-0.0237,-0.0241,-0.0246,-0.0317,-0.0328,-0.0333,-0.0374,-0.0368,-0.037,-0.0372,-0.0373,-0.0435,-0.0435,0,0,0,0,0,0,-0.0127,-0.0139,-0.0177,-0.0181,-0.0164,-0.0204,-0.0211,-0.0217,-0.0271,-0.0279,-0.0245,-0.0248,-0.0322,-0.033,-0.0337,-0.0348,-0.0371,-0.0374,-0.0375,-0.0435,-0.0435,-0.0434,0,0,0,0,0,0,-0.0125,-0.0129,-0.0175,-0.0161,-0.0168,-0.0204,-0.0211,-0.0218,-0.0228,-0.0276,-0.0286,-0.0248,-0.0323,-0.0333,-0.0358,-0.0352,-0.0375,-0.0378,-0.0435,-0.0435,-0.0435,-0.037,0,0,0,0,0,0,-0.0123,-0.0129,-0.0126,-0.016,-0.0168,-0.018,-0.021,-0.0218,-0.023,-0.0233,-0.0282,-0.0291,-0.0324,-0.0353,-0.0361,-0.0356,-0.038,-0.0435,-0.0435,-0.0435,-0.0373,-0.0368,-0.0364,0,0,0,0,0,-0.0121,-0.011,-0.0126,-0.013,-0.0165,-0.0179,-0.0185,-0.0214,-0.0229,-0.0226,-0.0262,-0.0289,-0.0356,-0.0355,-0.0364,-0.0361,-0.0436,-0.0435,-0.0435,-0.0375,-0.0369,-0.0364,0,0,0,0,0,0,-0.0078,-0.0115,-0.0132,-0.0131,-0.0151,-0.0187,-0.0185,-0.0207,-0.0233,-0.0237,-0.0286,-0.0297,-0.0318,-0.0347,-0.0344,-0.0378,-0.0401,-0.0402,-0.0352,-0.0347,-0.0343,-0.032,-0.0383,0,0,0,0,0,-0.0069,-0.0075,-0.0109,-0.0106,-0.0114,-0.0149,-0.0158,-0.0178,-0.0206,-0.0218,-0.0253,-0.029,-0.0323,-0.034,-0.0371,-0.0387,-0.0395,-0.0392,-0.0387,-0.0383,-0.0371,-0.0383,-0.0378,-0.0433,-0.0433,-0.0433,0,0,-0.0051,-0.0071,-0.0074,-0.0098,-0.0116,-0.0117,-0.0156,-0.0162,-0.0166,-0.0224,-0.0236,-0.0275,-0.0323,-0.0343,-0.0355,-0.0366,-0.0368,-0.0382,-0.0378,-0.0369,-0.0382,-0.0377,-0.0372,-0.0433,-0.0433,-0.0433,0,0,-0.0012,-0.0034,-0.0027,-0.0041,-0.0064,-0.0087,-0.0086,-0.0119,-0.0136,-0.0153,-0.0199,-0.0231,-0.0275,-0.0311,-0.0335,-0.0323,-0.0344,-0.0336,-0.0295,-0.0307,-0.0302,-0.0298,-0.0282,-0.0277,-0.0334,-0.0333,-0.0333,0,0.0013,0.0013,-0.0023,-0.0017,-0.0022,-0.0068,-0.0056,-0.0079,-0.0116,-0.0123,-0.0147,-0.0211,-0.0259,-0.0284,-0.0288,-0.0313,-0.0311,-0.031,-0.0299,-0.0295,-0.0292,-0.0277,-0.0273,-0.033,-0.0331,-0.0331,-0.0331,0,0.0052,0.0054,0.0062,0.0048,0.0041,0.0044,0.0008,-0.0001,-0.0029,-0.0054,-0.0081,-0.0146,-0.0181,-0.0208,-0.0249,-0.0254,-0.0255,-0.029,-0.0307,-0.0282,-0.0269,-0.0265,-0.0326,-0.0327,-0.0328,-0.0329,0,0,0.0099,0.009,0.0091,0.0099,0.0074,0.0075,0.0072,0.0057,0.0067,0.0016,0.0031,-0.0054,-0.0087,-0.0117,-0.0173,-0.0194,-0.018,-0.0228,-0.023,-0.0201,-0.0176,-0.0162,-0.0156,-0.0209,-0.0208,-0.0208,-0.0168,0,0.0139,0.0167,0.0148,0.0177,0.0188,0.0153,0.0161,0.0142,0.0118,0.0122,0.005,0.004,-0.0053,-0.0059,-0.0102,-0.0153,-0.017,-0.0186,-0.0214,-0.0214,-0.0196,-0.0152,-0.0148,-0.0111,-0.0164,-0.0164,-0.0163,0,0.018,0.0191,0.023,0.0243,0.0246,0.0263,0.0271,0.0272,0.0256,0.0243,0.021,0.0162,0.012,0.0044,-0.0036,-0.0037,-0.0101,-0.0148,-0.0148,-0.0154,-0.0193,-0.0151,-0.0103,-0.0322,-0.0158,-0.0158,-0.0159,0,0.0229,0.0248,0.0284,0.0287,0.0295,0.0317,0.0324,0.0316,0.0349,0.0336,0.038,0.0287,0.03,0.0181,0.0074,0.0024,0.0013,-0.0071,-0.0116,-0.0114,-0.0126,-0.0127,-0.0286,-0.012,-0.012,-0.012,-0.012,0,0.0276,0.0305,0.0316,0.0337,0.0399,0.0379,0.0451,0.0442,0.0478,0.0566,0.0458,0.0532,0.0339,0.0304,0.0148,0.0058,0.0071,-0.0086,-0.0101,-0.0102,-0.0101,-0.0306,-0.041,-0.0118,-0.0119,-0.0119,-0.0119,0,0.0335,0.0334,0.0385,0.041,0.043,0.048,0.0562,0.0621,0.0634,0.0757,0.0775,0.075,0.0713,0.0527,0.0383,0.0206,-0.0025,0.0042,0.0071,0.0057,-0.0234,-0.0332,-0.0453,-0.0557,-0.0021,-0.0021,-0.002,0,0.0373,0.0406,0.0457,0.0521,0.0547,0.0621,0.0691,0.0706,0.0795,0.0919,0.101,0.1013,0.106,0.0848,0.0538,0.0289,0.0066,0.0103,-0.0021,-0.0228,-0.035,-0.0434,-0.0521,-0.0003,-0.0003,-0.0002,-0.0002,0,0.0473,0.0491,0.0541,0.0658,0.0745,0.0832,0.0939,0.1031,0.1099,0.1219,0.1404,0.1457,0.127,0.1029,0.0661,0.0458,-0.0054,0.0105,-0.0128,-0.0352,-0.0436,-0.0548,-0.0039,0.0003,0.0002,0.0002,0.0002,0.0002,0.0577,0.0636,0.0723,0.083,0.0928,0.1061,0.1154,0.1293,0.1465,0.1665,0.1711,0.1836,0.1432,0.0939,0.0629,0.0015,0.0004,-0.0214,-0.031,-0.0374,-0.0499,0.004,0.0068,0.0068,0.0068,0.0067,0.0067,0,0.0727,0.0792,0.0904,0.1034,0.1152,0.1164,0.1339,0.1448,0.1676,0.188,0.2045,0.195,0.1449,0.0896,0.0084,-0.0351,-0.054,-0.0591,-0.0752,-0.0821,-0.0356,-0.0387,-0.0433,-0.0433,-0.0433,-0.0433,-0.0433,-0.0432,0.0832,0.0963,0.0997,0.1216,0.1299,0.1449,0.1542,0.1717,0.1882,0.2133,0.2228,0.2268,0.1826,0.0426,-0.0574,-0.0802,-0.1126,-0.1156,-0.133,-0.1068,-0.1043,-0.1019,-0.1077,-0.1268,-0.1269,-0.1779,-0.1784,-0.1788]}],[{"header":{"parameterUnit":"m.s-1","parameterCategory":2,"la1":30.2991,"la2":30.254,"lo1":-89.0895,"lo2":-89.0444,"dy":0.0017,"dx":0.0017,"nx":28,"ny":28,"refTime":"2024-03-16T09:00:00:Z","depth":"2","parameterNumber":2,"parameterNumberName":"U-component_of_CURRENTS"},"data":[0,0,0,0,0,0,0,0,0,0,0,0,0,0,0,0,0,0,0,0,0,0,0,0,0,0,0,0,0,0,0,0,0,0,0,0,0,0,0,0,0,0,0,0,0,0,0,0,0,0,0,0,0,0,0,0,0,0,0.2134,0.2134,0,0.2181,0.2182,0.2183,0.2215,0.2215,0.2215,0.2215,0.2236,0.2237,0.2237,0,0,0,0,0,0,0,0,0,0,0,0,0,0.2066,0.2067,0.2134,0.2134,0.2135,0.2181,0.2182,0.2183,0.2215,0.2215,0.2215,0.2215,0.2236,0.2237,0.2238,0,0,0,0,0,0,0,0,0,0,0,0,0,0.2105,0.2067,0.2134,0.2154,0.2157,0.2181,0.2182,0.2183,0.2215,0.2215,0.2215,0.2215,0.2236,0.2237,0.2238,0.2242,0,0,0.224,0.2241,0,0,0,0,0,0,0,0,0.2102,0.2108,0.2151,0.2153,0.2155,0.219,0.2166,0.2201,0.2215,0.2196,0.2215,0.2215,0.2217,0.2219,0.2232,0.2243,0.2244,0.224,0.2241,0.2241,0.2241,0,0,0,0,0,0,0,0.21,0.2106,0.2155,0.2151,0.2154,0.2159,0.2165,0.2173,0.2207,0.2197,0.2199,0.22,0.2218,0.2231,0.2233,0.2245,0.224,0.2241,0.2241,0.2242,0.2316,0.2317,0,0,0,0,0,0,0.2089,0.2103,0.2154,0.2156,0.2126,0.216,0.2167,0.2181,0.2208,0.2211,0.22,0.2202,0.223,0.2232,0.2233,0.229,0.2241,0.2242,0.2242,0.2315,0.2316,0.2318,0,0,0,0,0,0,0.2088,0.2094,0.2152,0.2128,0.2135,0.2161,0.2177,0.2182,0.2205,0.221,0.2213,0.2218,0.223,0.2232,0.2251,0.2289,0.2242,0.2243,0.2313,0.2315,0.2317,0.237,0,0,0,0,0,0,0.2086,0.2094,0.2104,0.2128,0.2136,0.2181,0.2177,0.2183,0.2203,0.2206,0.2226,0.2228,0.223,0.225,0.2252,0.2289,0.2244,0.2311,0.2314,0.2316,0.2367,0.2374,0.238,0,0,0,0,0,0.2084,0.2093,0.2104,0.211,0.2149,0.2182,0.2188,0.2207,0.2204,0.2225,0.2232,0.2228,0.227,0.2251,0.2254,0.2292,0.231,0.2313,0.2316,0.2363,0.2372,0.238,0,0,0,0,0,0,0.2063,0.2098,0.2111,0.2129,0.2161,0.2187,0.22,0.2212,0.2235,0.2235,0.2237,0.224,0.2276,0.2272,0.2252,0.2322,0.2293,0.2297,0.2328,0.2336,0.2343,0.2349,0.2244,0,0,0,0,0,0.2064,0.2088,0.2119,0.2138,0.2152,0.2178,0.2193,0.2211,0.2229,0.2241,0.2254,0.2269,0.2291,0.2302,0.2319,0.2348,0.236,0.2377,0.2384,0.239,0.2397,0.2443,0.2455,0.2329,0.2329,0.2329,0,0,0.206,0.2082,0.2095,0.2136,0.2158,0.2186,0.2189,0.2218,0.2243,0.2237,0.2273,0.2292,0.2304,0.2344,0.236,0.2345,0.2435,0.2394,0.2399,0.2403,0.2448,0.246,0.2471,0.2331,0.2331,0.233,0,0,0.2062,0.2086,0.2108,0.2137,0.2175,0.2195,0.2206,0.2244,0.2264,0.2295,0.2307,0.2345,0.2367,0.2398,0.241,0.2462,0.2469,0.2473,0.2513,0.2558,0.2569,0.2578,0.2621,0.2634,0.2477,0.2477,0.2477,0,0.2055,0.2089,0.2119,0.2147,0.2165,0.2199,0.2223,0.2253,0.2295,0.232,0.2311,0.2385,0.2395,0.2457,0.2482,0.248,0.2504,0.248,0.2567,0.2577,0.2586,0.2627,0.264,0.248,0.248,0.2479,0.2479,0,0.2075,0.2106,0.212,0.217,0.2194,0.2223,0.2261,0.2314,0.2334,0.2355,0.2421,0.2446,0.2495,0.2511,0.251,0.2592,0.2589,0.257,0.2545,0.2602,0.2641,0.2654,0.2484,0.2483,0.2482,0.2482,0,0,0.2054,0.2121,0.213,0.216,0.2208,0.2237,0.2292,0.2352,0.2406,0.2441,0.2506,0.2549,0.2573,0.259,0.2611,0.2651,0.2738,0.2643,0.2644,0.2684,0.2846,0.2804,0.2814,0.2737,0.274,0.2741,0.2852,0,0.2064,0.2116,0.2145,0.2199,0.2225,0.2285,0.2327,0.2387,0.2442,0.2521,0.2559,0.2619,0.2597,0.2646,0.2679,0.2733,0.2774,0.271,0.2787,0.2789,0.2744,0.2828,0.2612,0.269,0.2865,0.2867,0.2869,0,0.2071,0.2109,0.215,0.2224,0.2241,0.2283,0.2389,0.2434,0.2541,0.2584,0.2657,0.2694,0.2781,0.2747,0.2847,0.281,0.2835,0.2858,0.2862,0.2812,0.2772,0.266,0.2707,0.289,0.2889,0.2887,0.2886,0,0.2046,0.2115,0.2148,0.2172,0.2254,0.2308,0.2362,0.2458,0.2508,0.2648,0.271,0.2792,0.2854,0.2901,0.2948,0.2915,0.3048,0.3004,0.2985,0.2983,0.2808,0.2785,0.307,0.307,0.307,0.3069,0.3069,0,0.2042,0.2081,0.215,0.2185,0.2233,0.2294,0.2376,0.2462,0.257,0.2634,0.2738,0.282,0.2897,0.2977,0.2998,0.3042,0.3088,0.3017,0.3017,0.2821,0.28,0.297,0.2957,0.3074,0.3073,0.3072,0.3071,0,0.2012,0.2059,0.2109,0.22,0.2225,0.2265,0.2372,0.2449,0.2552,0.2661,0.2712,0.286,0.2973,0.3038,0.3134,0.3105,0.3156,0.3153,0.2922,0.2893,0.3048,0.3037,0.3155,0.3155,0.3154,0.3154,0.3154,0,0.201,0.2022,0.2102,0.2138,0.2187,0.2256,0.2314,0.2424,0.2491,0.2677,0.2723,0.2889,0.2973,0.3105,0.3116,0.3163,0.3183,0.2969,0.286,0.3073,0.3062,0.3051,0.304,0.2654,0.265,0.2647,0.2644,0,0.1994,0.2013,0.2068,0.2116,0.2184,0.2223,0.2312,0.2351,0.2485,0.2572,0.2694,0.2791,0.2946,0.2908,0.2984,0.2971,0.2946,0.29,0.3202,0.2664,0.261,0.2595,0.26,0.2612,0.2616,0.2618,0.262,0.2621,0.1994,0.2007,0.2065,0.2082,0.2151,0.2168,0.217,0.2268,0.2321,0.2412,0.2564,0.2631,0.2709,0.2722,0.2669,0.2642,0.2829,0.2696,0.2703,0.2715,0.2636,0.2583,0.2566,0.2569,0.2571,0.2574,0.2575,0,0.1922,0.1957,0.2024,0.2029,0.2032,0.2107,0.214,0.2113,0.2121,0.2281,0.2344,0.2221,0.225,0.2329,0.2254,0.2275,0.2211,0.2173,0.2064,0.21,0.2131,0.2016,0.1785,0.1782,0.1779,0.1776,0,0,0.1912,0.1918,0.1922,0.1875,0.1904,0.1853,0.1855,0.1842,0.1897,0.1915,0.1954,0.2164,0.2293,0.2004,0.1986,0.1874,0.196,0.1805,0.2453,0.2364,0.239,0.2465,0.2335,0,0,0,0,0]},{"header":{"parameterUnit":"m.s-1","parameterCategory":2,"la1":30.2991,"la2":30.254,"lo1":-89.0895,"lo2":-89.0444,"dy":0.0017,"dx":0.0017,"nx":28,"ny":28,"refTime":"2024-03-16T09:00:00:Z","depth":"2","parameterNumber":3,"parameterNumberName":"V-component_of_CURRENTS"},"data":[0,0,0,0,0,0,0,0,0,0,0,0,0,0,0,0,0,0,0,0,0,0,0,0,0,0,0,0,0,0,0,0,0,0,0,0,0,0,0,0,0,0,0,0,0,0,0,0,0,0,0,0,0,0,0,0,0,0,-0.006,-0.0061,0,-0.0116,-0.0117,-0.0118,-0.0167,-0.0167,-0.0168,-0.0168,-0.0247,-0.0248,-0.025,0,0,0,0,0,0,0,0,0,0,0,0,0,-0.0016,-0.0017,-0.006,-0.0061,-0.0061,-0.0116,-0.0117,-0.0118,-0.0167,-0.0167,-0.0168,-0.0168,-0.0246,-0.0248,-0.025,0,0,0,0,0,0,0,0,0,0,0,0,0,-0.0052,-0.0017,-0.006,-0.0091,-0.0094,-0.0116,-0.0117,-0.0118,-0.0167,-0.0167,-0.0168,-0.0168,-0.0245,-0.0248,-0.0251,-0.0256,0,0,-0.0259,-0.026,0,0,0,0,0,0,0,0,-0.005,-0.0054,-0.0086,-0.0089,-0.0092,-0.0133,-0.013,-0.0164,-0.0166,-0.0141,-0.0168,-0.0169,-0.0209,-0.0215,-0.0227,-0.0259,-0.0263,-0.0259,-0.026,-0.0262,-0.0262,0,0,0,0,0,0,0,-0.0047,-0.0052,-0.0085,-0.0086,-0.009,-0.0108,-0.0114,-0.0137,-0.0173,-0.0144,-0.0147,-0.0149,-0.0211,-0.0224,-0.0229,-0.0264,-0.0259,-0.0261,-0.0263,-0.0264,-0.0312,-0.0312,0,0,0,0,0,0,-0.0034,-0.0049,-0.0083,-0.0086,-0.0069,-0.0108,-0.0115,-0.0121,-0.0173,-0.018,-0.0149,-0.0151,-0.0219,-0.0226,-0.0232,-0.0237,-0.0262,-0.0264,-0.0265,-0.0312,-0.0312,-0.0312,0,0,0,0,0,0,-0.0033,-0.0037,-0.0081,-0.0067,-0.0074,-0.0108,-0.0115,-0.0122,-0.0134,-0.0176,-0.0185,-0.0154,-0.022,-0.0228,-0.0247,-0.0241,-0.0265,-0.0268,-0.0313,-0.0312,-0.0312,-0.025,0,0,0,0,0,0,-0.0032,-0.0036,-0.0037,-0.0066,-0.0074,-0.0086,-0.0114,-0.0123,-0.0134,-0.0138,-0.0183,-0.0191,-0.0221,-0.0243,-0.025,-0.0245,-0.027,-0.0313,-0.0312,-0.0312,-0.0252,-0.0247,-0.0243,0,0,0,0,0,-0.003,-0.0022,-0.0036,-0.004,-0.0073,-0.0085,-0.0091,-0.0119,-0.0134,-0.0134,-0.0164,-0.019,-0.0245,-0.0245,-0.0253,-0.0248,-0.0313,-0.0312,-0.0312,-0.0254,-0.0248,-0.0243,0,0,0,0,0,0,-0.0,-0.0027,-0.0043,-0.0044,-0.0061,-0.0093,-0.0093,-0.0113,-0.0138,-0.0142,-0.0184,-0.0194,-0.021,-0.0236,-0.0235,-0.0261,-0.0284,-0.0285,-0.0238,-0.0232,-0.0228,-0.0207,-0.0272,0,0,0,0,0,0.0007,0.0002,-0.0024,-0.0025,-0.003,-0.0062,-0.007,-0.0088,-0.0113,-0.0125,-0.0156,-0.0188,-0.0213,-0.0227,-0.0254,-0.0265,-0.0288,-0.0269,-0.0264,-0.026,-0.0249,-0.0278,-0.0274,-0.0309,-0.0309,-0.0309,0,0,0.0019,0.0003,0.0,-0.0019,-0.0036,-0.0032,-0.0069,-0.0075,-0.0072,-0.0128,-0.0135,-0.0173,-0.0213,-0.0227,-0.0237,-0.0248,-0.0262,-0.0259,-0.0255,-0.0246,-0.0277,-0.0273,-0.027,-0.0309,-0.0309,-0.0309,0,0,0.0048,0.0027,0.0036,0.0027,0.0009,-0.0008,-0.0006,-0.0034,-0.0048,-0.0059,-0.01,-0.0129,-0.0166,-0.0194,-0.0212,-0.0197,-0.0237,-0.0212,-0.0172,-0.0199,-0.0197,-0.0194,-0.0217,-0.0217,-0.0209,-0.0209,-0.0209,0,0.0064,0.007,0.0039,0.0049,0.0051,0.0009,0.0028,0.0009,-0.0023,-0.0028,-0.0051,-0.0109,-0.0147,-0.0164,-0.0164,-0.0186,-0.0209,-0.0188,-0.0192,-0.0191,-0.019,-0.0214,-0.0215,-0.0206,-0.0206,-0.0206,-0.0207,0,0.0101,0.0107,0.0116,0.0113,0.0111,0.0119,0.0096,0.0084,0.0061,0.0042,0.0018,-0.0037,-0.0071,-0.0093,-0.0125,-0.0137,-0.0158,-0.0183,-0.0203,-0.0182,-0.0209,-0.0211,-0.0201,-0.0202,-0.0203,-0.0204,0,0,0.0131,0.0141,0.0142,0.0157,0.0146,0.015,0.0155,0.0149,0.0157,0.0112,0.0119,0.0058,0.0021,-0.0002,-0.0054,-0.0084,-0.0102,-0.0127,-0.013,-0.0142,-0.0161,-0.0182,-0.0187,-0.013,-0.013,-0.013,-0.0182,0,0.017,0.0209,0.0201,0.024,0.0261,0.0232,0.0247,0.0234,0.0211,0.0205,0.0142,0.0129,0.0058,0.0043,0.0,-0.0073,-0.0105,-0.0085,-0.0185,-0.0188,-0.0203,-0.0189,-0.0156,-0.02,-0.0185,-0.0185,-0.0186,0,0.0213,0.0231,0.028,0.0311,0.0319,0.0337,0.0348,0.0355,0.0332,0.0317,0.0278,0.0228,0.0176,0.0116,0.0004,0.0018,-0.0063,-0.0125,-0.0129,-0.0169,-0.0212,-0.022,-0.0206,-0.019,-0.019,-0.0189,-0.0189,0,0.0252,0.029,0.0332,0.034,0.0365,0.0384,0.0397,0.039,0.0413,0.0387,0.0401,0.0318,0.0293,0.0178,0.004,0.0022,-0.008,-0.0121,-0.0216,-0.0219,-0.0219,-0.0222,-0.0195,-0.0195,-0.0195,-0.0195,-0.0195,0,0.03,0.0332,0.0356,0.0376,0.0437,0.0437,0.0495,0.049,0.0507,0.0556,0.0465,0.048,0.0307,0.0222,0.008,-0.0068,-0.0052,-0.0201,-0.0231,-0.0198,-0.0197,-0.0213,-0.0215,-0.0197,-0.0197,-0.0196,-0.0196,0,0.034,0.0353,0.0404,0.0439,0.0459,0.0502,0.0571,0.0612,0.0617,0.0677,0.0679,0.0606,0.0494,0.0315,0.0135,-0.0,-0.0149,-0.0208,-0.0155,-0.0178,-0.0281,-0.0278,-0.0318,-0.0319,-0.032,-0.0321,-0.0321,0,0.0365,0.0394,0.0451,0.0491,0.0512,0.0578,0.0633,0.0664,0.0718,0.0763,0.0802,0.0715,0.0665,0.0389,0.0132,-0.0114,-0.0149,-0.024,-0.0274,-0.0267,-0.0292,-0.0288,-0.0285,-0.0252,-0.0252,-0.0252,-0.0252,0,0.0406,0.0423,0.0461,0.0546,0.061,0.0691,0.0772,0.0836,0.089,0.0943,0.0991,0.0956,0.0702,0.0451,0.0112,-0.0048,-0.0202,-0.025,-0.0247,-0.0227,-0.0209,-0.0233,-0.0231,-0.0252,-0.0252,-0.0252,-0.0252,-0.0252,0.0429,0.046,0.0512,0.06,0.068,0.0788,0.0873,0.096,0.1061,0.1152,0.112,0.1086,0.0804,0.0369,0.0078,-0.0217,-0.0213,-0.0311,-0.0309,-0.0307,-0.0291,-0.0277,-0.0329,-0.0329,-0.033,-0.033,-0.033,0,0.0448,0.0485,0.0565,0.0661,0.0766,0.0804,0.0955,0.1042,0.1169,0.1243,0.1272,0.1027,0.0744,0.0429,-0.0016,-0.0289,-0.0301,-0.036,-0.0319,-0.0316,-0.0314,-0.0297,-0.0337,-0.0338,-0.0339,-0.034,0,0,0.0452,0.0514,0.0557,0.0712,0.0795,0.0938,0.1034,0.1155,0.1245,0.131,0.1305,0.1239,0.0855,0.0533,0.016,-0.009,-0.0135,-0.013,-0.0093,0.0003,0.0008,-0.0254,-0.0221,0,0,0,0,0]}],[{"header":{"parameterUnit":"m.s-1","parameterCategory":2,"la1":30.2991,"la2":30.254,"lo1":-89.0895,"lo2":-89.0444,"dy":0.0017,"dx":0.0017,"nx":28,"ny":28,"refTime":"2024-03-16T09:00:00:Z","depth":"4","parameterNumber":2,"parameterNumberName":"U-component_of_CURRENTS"},"data":[0,0,0,0,0,0,0,0,0,0,0,0,0,0,0,0,0,0,0,0,0,0,0,0,0,0,0,0,0,0,0,0,0,0,0,0,0,0,0,0,0,0,0,0,0,0,0,0,0,0,0,0,0,0,0,0,0,0,0.1249,0.125,0,0.1311,0.1312,0.1312,0.1363,0.1364,0.1365,0.1365,0.1453,0.1454,0.1456,0,0,0,0,0,0,0,0,0,0,0,0,0,0.115,0.1151,0.1249,0.125,0.1251,0.1311,0.1312,0.1312,0.1363,0.1364,0.1365,0.1366,0.1452,0.1454,0.1456,0,0,0,0,0,0,0,0,0,0,0,0,0,0.1199,0.1152,0.1249,0.1285,0.1289,0.1311,0.1312,0.1313,0.1363,0.1364,0.1365,0.1366,0.1451,0.1454,0.1456,0.145,0,0,0.1464,0.1465,0,0,0,0,0,0,0,0,0.1196,0.1202,0.1279,0.1283,0.1287,0.1332,0.1309,0.1361,0.1363,0.1333,0.1365,0.1367,0.1415,0.1421,0.1427,0.1454,0.1458,0.1464,0.1466,0.1467,0.1467,0,0,0,0,0,0,0,0.1192,0.1199,0.1272,0.128,0.1285,0.129,0.1298,0.1318,0.1366,0.1335,0.134,0.1349,0.1418,0.1424,0.1429,0.1459,0.1464,0.1466,0.1468,0.1469,0.1573,0.1574,0,0,0,0,0,0,0.1189,0.1196,0.127,0.1274,0.1245,0.1291,0.13,0.1315,0.1366,0.1375,0.1348,0.1352,0.1419,0.1426,0.1433,0.1515,0.1467,0.1469,0.147,0.1572,0.1573,0.1574,0,0,0,0,0,0,0.1187,0.1195,0.1267,0.1237,0.1247,0.1292,0.1308,0.1316,0.1354,0.1376,0.1385,0.1382,0.1421,0.1429,0.1481,0.1515,0.147,0.1472,0.157,0.1572,0.1574,0.1624,0,0,0,0,0,0,0.1184,0.1194,0.1215,0.1238,0.1249,0.13,0.1308,0.1316,0.1357,0.1362,0.1407,0.1414,0.1422,0.1477,0.1483,0.1518,0.1474,0.1568,0.1571,0.1573,0.1621,0.1627,0.1633,0,0,0,0,0,0.118,0.1198,0.1215,0.1225,0.1273,0.1301,0.1307,0.134,0.1358,0.1377,0.1412,0.1415,0.1496,0.148,0.1487,0.1524,0.1567,0.157,0.1573,0.1618,0.1626,0.1633,0,0,0,0,0,0,0.1166,0.1206,0.1225,0.1256,0.1287,0.1311,0.1335,0.1355,0.1397,0.1412,0.1431,0.1441,0.15,0.1502,0.1483,0.156,0.1532,0.1536,0.1564,0.1572,0.1578,0.1569,0.1476,0,0,0,0,0,0.1172,0.12,0.1234,0.1262,0.128,0.1313,0.1334,0.1357,0.139,0.1411,0.1441,0.1475,0.151,0.1535,0.156,0.1601,0.1611,0.1628,0.1634,0.164,0.1637,0.1682,0.1692,0.1584,0.1584,0.1584,0,0,0.1174,0.1201,0.1217,0.1262,0.1289,0.1315,0.1329,0.1369,0.1395,0.1413,0.1467,0.15,0.1526,0.1576,0.1601,0.1587,0.1679,0.1643,0.1648,0.1642,0.1686,0.1696,0.1705,0.1586,0.1585,0.1585,0,0,0.1179,0.1218,0.124,0.1269,0.1318,0.1335,0.1354,0.1395,0.1425,0.1475,0.1499,0.1553,0.16,0.1628,0.1647,0.1701,0.1711,0.1715,0.1742,0.1786,0.1795,0.1803,0.1844,0.1855,0.1718,0.1718,0.1718,0,0.1185,0.1215,0.125,0.1279,0.1305,0.1347,0.1373,0.1404,0.1459,0.1489,0.1501,0.1597,0.1622,0.1686,0.1708,0.1716,0.1741,0.1713,0.1794,0.1802,0.181,0.1849,0.1861,0.1721,0.172,0.172,0.172,0,0.1194,0.1234,0.1251,0.13,0.1331,0.1364,0.1407,0.145,0.1492,0.1525,0.1607,0.1649,0.1709,0.1729,0.1737,0.1808,0.181,0.1798,0.1774,0.1824,0.1862,0.1874,0.1725,0.1724,0.1723,0.1722,0,0,0.1172,0.1244,0.1254,0.1286,0.1348,0.1374,0.1425,0.1481,0.1531,0.1591,0.1658,0.1723,0.1763,0.1786,0.1815,0.1851,0.1933,0.1851,0.1852,0.189,0.2038,0.1916,0.1917,0.1941,0.1943,0.1944,0.205,0,0.1175,0.1224,0.126,0.1315,0.1345,0.1402,0.1446,0.1507,0.1568,0.1643,0.1704,0.1782,0.178,0.1834,0.1869,0.1926,0.1963,0.1906,0.1985,0.1988,0.1872,0.1925,0.195,0.2058,0.2061,0.2062,0.2064,0,0.117,0.1207,0.1253,0.1334,0.1354,0.1393,0.1484,0.1535,0.1638,0.1693,0.1776,0.1831,0.1922,0.1905,0.2014,0.1983,0.2012,0.2038,0.2043,0.1914,0.1885,0.1995,0.2084,0.2083,0.2081,0.208,0.2079,0,0.1125,0.1205,0.1243,0.1269,0.1359,0.1401,0.1459,0.1555,0.1614,0.1743,0.1809,0.1906,0.1988,0.2035,0.2098,0.2073,0.22,0.2172,0.2085,0.2078,0.2134,0.2124,0.223,0.223,0.223,0.2229,0.2229,0,0.1101,0.1141,0.1234,0.1253,0.1319,0.1393,0.1477,0.155,0.1664,0.1741,0.1844,0.1917,0.2026,0.2108,0.2133,0.215,0.2236,0.2096,0.2095,0.2154,0.2146,0.2143,0.2131,0.2233,0.2233,0.2232,0.2231,0,0.1045,0.1105,0.1157,0.1256,0.1299,0.135,0.1483,0.1539,0.1662,0.177,0.1821,0.1963,0.2069,0.2151,0.225,0.2194,0.2223,0.2201,0.2279,0.228,0.2062,0.2052,0.2113,0.2109,0.2106,0.2104,0.2102,0,0.1017,0.1038,0.1145,0.1184,0.1236,0.133,0.1392,0.1525,0.1585,0.1777,0.1815,0.1972,0.2052,0.2101,0.2184,0.2231,0.2198,0.2196,0.2097,0.2056,0.2051,0.2045,0.204,0.2097,0.2096,0.2095,0.2095,0,0.0956,0.1001,0.1034,0.1116,0.1187,0.1266,0.1366,0.1401,0.1557,0.1687,0.1779,0.1847,0.1961,0.2031,0.2087,0.2107,0.2187,0.2165,0.217,0.2076,0.2038,0.2034,0.2032,0.2084,0.2086,0.2087,0.2087,0,0.09,0.0906,0.0955,0.1028,0.1112,0.1166,0.124,0.1322,0.1404,0.1609,0.1639,0.1803,0.1943,0.1969,0.2019,0.2035,0.1995,0.1917,0.1934,0.1946,0.184,0.1764,0.1732,0,0,0,0,0,0.0837,0.0829,0.0871,0.0924,0.1009,0.1067,0.1201,0.1278,0.1432,0.1457,0.1544,0.1641,0.1731,0.1814,0.1798,0.1937,0.1994,0.1908,0.191,0.2028,0.204,0.1929,0,0,0,0,0,0,0.0783,0.0799,0.0818,0.0832,0.0858,0.0938,0.1021,0.1136,0.1161,0.133,0.1392,0.1525,0.1638,0.1715,0.1756,0.1782,0.1748,0.2011,0.2007,0.2021,0.2032,0.2041,0.1931,0,0,0,0,0]},{"header":{"parameterUnit":"m.s-1","parameterCategory":2,"la1":30.2991,"la2":30.254,"lo1":-89.0895,"lo2":-89.0444,"dy":0.0017,"dx":0.0017,"nx":28,"ny":28,"refTime":"2024-03-16T09:00:00:Z","depth":"4","parameterNumber":3,"parameterNumberName":"V-component_of_CURRENTS"},"data":[0,0,0,0,0,0,0,0,0,0,0,0,0,0,0,0,0,0,0,0,0,0,0,0,0,0,0,0,0,0,0,0,0,0,0,0,0,0,0,0,0,0,0,0,0,0,0,0,0,0,0,0,0,0,0,0,0,0,0.0047,0.0046,0,0.0009,0.0009,0.0008,-0.0021,-0.0021,-0.0021,-0.0021,-0.0083,-0.0084,-0.0086,0,0,0,0,0,0,0,0,0,0,0,0,0,0.0078,0.0078,0.0047,0.0046,0.0046,0.0009,0.0009,0.0008,-0.0021,-0.0021,-0.0021,-0.0022,-0.0083,-0.0084,-0.0086,0,0,0,0,0,0,0,0,0,0,0,0,0,0.0055,0.0077,0.0047,0.0027,0.0025,0.0009,0.0009,0.0008,-0.0021,-0.0021,-0.0021,-0.0022,-0.0082,-0.0084,-0.0086,-0.0092,0,0,-0.0093,-0.0094,0,0,0,0,0,0,0,0,0.0056,0.0053,0.003,0.0028,0.0026,-0.0001,-0.0003,-0.0026,-0.0021,-0.0004,-0.0021,-0.0022,-0.0057,-0.0062,-0.0068,-0.0094,-0.0097,-0.0093,-0.0094,-0.0095,-0.0096,0,0,0,0,0,0,0,0.0058,0.0055,0.0031,0.003,0.0027,0.0015,0.0011,-0.0007,-0.0029,-0.0005,-0.0007,-0.0011,-0.0059,-0.0066,-0.007,-0.0098,-0.0093,-0.0095,-0.0096,-0.0097,-0.0129,-0.0128,0,0,0,0,0,0,0.0064,0.0056,0.0033,0.003,0.0041,0.0015,0.0011,0.0008,-0.0028,-0.0034,-0.001,-0.0012,-0.0062,-0.0067,-0.0072,-0.0073,-0.0095,-0.0097,-0.0098,-0.0129,-0.0129,-0.0128,0,0,0,0,0,0,0.0065,0.0062,0.0034,0.0043,0.0038,0.0015,0.0011,0.0007,0.0,-0.0032,-0.0038,-0.0013,-0.0062,-0.0069,-0.0085,-0.0076,-0.0098,-0.01,-0.013,-0.0129,-0.0129,-0.0079,0,0,0,0,0,0,0.0066,0.0063,0.0063,0.0043,0.0038,0.0032,0.0012,0.0007,-0.0001,-0.0004,-0.0036,-0.0042,-0.0063,-0.0082,-0.0087,-0.0079,-0.0101,-0.013,-0.0129,-0.0129,-0.0082,-0.0077,-0.0074,0,0,0,0,0,0.0067,0.0073,0.0063,0.006,0.0039,0.0032,0.0029,0.001,-0.0001,0.0002,-0.0022,-0.0041,-0.0081,-0.0083,-0.0089,-0.0082,-0.0131,-0.013,-0.0129,-0.0083,-0.0078,-0.0074,0,0,0,0,0,0,0.0086,0.007,0.0059,0.0059,0.0048,0.0027,0.0028,0.0014,-0.0002,-0.0006,-0.0038,-0.0045,-0.0056,-0.0075,-0.0077,-0.0089,-0.0108,-0.0108,-0.0071,-0.0067,-0.0063,-0.0046,-0.0103,0,0,0,0,0,0.009,0.009,0.0073,0.0072,0.007,0.0049,0.0043,0.0031,0.0014,0.0006,-0.0016,-0.0039,-0.0057,-0.0066,-0.0086,-0.0092,-0.012,-0.0091,-0.0087,-0.0083,-0.0074,-0.0109,-0.0107,-0.0125,-0.0125,-0.0125,0,0,0.0098,0.0088,0.0088,0.0076,0.0066,0.0072,0.0045,0.0041,0.0046,0.0002,0.0001,-0.0028,-0.0056,-0.0063,-0.007,-0.0078,-0.0094,-0.0082,-0.0079,-0.0071,-0.0108,-0.0106,-0.0104,-0.0125,-0.0125,-0.0125,0,0,0.0118,0.0104,0.0114,0.0109,0.0098,0.0089,0.009,0.0072,0.0065,0.0059,0.0028,0.0008,-0.0017,-0.0035,-0.0047,-0.0032,-0.0073,-0.0041,-0.0005,-0.0039,-0.0038,-0.0037,-0.0076,-0.0079,-0.0036,-0.0036,-0.0036,0,0.0127,0.0135,0.0116,0.0126,0.0128,0.0101,0.0117,0.0108,0.0087,0.0083,0.0068,0.0027,0.0001,-0.001,-0.0005,-0.0022,-0.0052,-0.0021,-0.0034,-0.0033,-0.0033,-0.0074,-0.0078,-0.0034,-0.0034,-0.0034,-0.0035,0,0.0155,0.0163,0.017,0.0175,0.0176,0.0183,0.0172,0.017,0.0156,0.0142,0.0125,0.0086,0.0063,0.005,0.0028,0.0017,-0.0009,-0.0027,-0.0045,-0.0029,-0.0072,-0.0077,-0.003,-0.0031,-0.0032,-0.0033,0,0,0.0172,0.0188,0.019,0.0205,0.0202,0.0209,0.0221,0.0223,0.023,0.0202,0.0205,0.0168,0.0138,0.0122,0.0085,0.0057,0.0026,0.002,0.0017,-0.0016,-0.0058,-0.0066,-0.0073,0.0001,0.0001,0.0001,-0.009,0,0.02,0.0235,0.0234,0.027,0.0288,0.0275,0.0292,0.0288,0.0274,0.0269,0.0224,0.0211,0.0168,0.0155,0.012,0.0048,0.0016,0.0052,-0.007,-0.0073,-0.0081,-0.0078,-0.0001,-0.0094,-0.0095,-0.0096,-0.0097,0,0.023,0.0249,0.0291,0.0324,0.0331,0.0351,0.037,0.0379,0.0363,0.035,0.0322,0.028,0.0236,0.0199,0.0088,0.011,0.0036,-0.0022,-0.0027,-0.0053,-0.0091,-0.0113,-0.0107,-0.0106,-0.0105,-0.0105,-0.0104,0,0.0254,0.0292,0.0329,0.0337,0.0367,0.0388,0.0407,0.0405,0.0419,0.0399,0.0398,0.0333,0.03,0.0206,0.0084,0.0083,-0.0044,-0.0063,-0.0141,-0.0144,-0.0131,-0.0131,-0.0136,-0.0136,-0.0136,-0.0136,-0.0136,0,0.0282,0.0313,0.0347,0.0365,0.0416,0.0425,0.0471,0.0473,0.0483,0.05,0.0441,0.0427,0.03,0.021,0.01,-0.0038,-0.0037,-0.0132,-0.0164,-0.011,-0.0106,-0.0136,-0.0135,-0.0139,-0.0139,-0.0138,-0.0137,0,0.03,0.0321,0.0366,0.041,0.0429,0.0464,0.0522,0.055,0.0551,0.057,0.0567,0.0492,0.0369,0.0232,0.007,-0.0016,-0.0145,-0.0194,-0.0127,-0.0154,-0.0228,-0.0223,-0.0287,-0.0288,-0.0289,-0.029,-0.029,0,0.0312,0.0335,0.0396,0.0427,0.0452,0.0509,0.0549,0.058,0.0608,0.0604,0.061,0.0511,0.044,0.0211,0.0058,-0.0153,-0.0182,-0.0245,-0.0231,-0.0217,-0.0242,-0.0236,-0.023,-0.0292,-0.0292,-0.0292,-0.0292,0,0.0328,0.0349,0.0388,0.0453,0.0505,0.0565,0.0624,0.0653,0.0682,0.0683,0.0649,0.0536,0.0395,0.0213,0.0047,-0.0104,-0.0199,-0.0255,-0.0254,-0.0241,-0.0223,-0.0246,-0.0239,-0.0295,-0.0295,-0.0295,-0.0294,0,0.0337,0.0368,0.0418,0.0478,0.0542,0.0602,0.0636,0.0673,0.0703,0.0703,0.0685,0.0544,0.0463,0.0236,0.0083,-0.0066,-0.0105,-0.0141,-0.0147,-0.0146,-0.0078,-0.0032,-0.0069,0,0,0,0,0,0.0342,0.0382,0.0439,0.0507,0.057,0.0612,0.0676,0.0703,0.0733,0.0719,0.071,0.0583,0.0363,0.0261,0.0111,0.0047,-0.0145,-0.0135,-0.0192,-0.0311,-0.0308,-0.0253,0,0,0,0,0,0,0.0347,0.0401,0.0439,0.0518,0.057,0.0644,0.069,0.0712,0.0705,0.0711,0.0592,0.055,0.0325,0.0449,0.0109,0.0063,0.0008,-0.0238,-0.0241,-0.0313,-0.031,-0.0307,-0.025,0,0,0,0,0]}]]